When you browse on this site, cookies collect data to enhance your experience and personalize the content and advertising you see.
Visit our Privacy Policy to learn more. By continuing to use the site, you agree to this use of cookies and data.
  • In Deutschland
  • Länderverzeichnis
  • Für 7 Tage
  • Wassertemperatur
  • Wetterkarte
  • Widgets
  • user-avatar
    Anmelden

    Stündliche Wetter Amar

    Heute, 17 September, Dienstag

    Zeit Temperatur Niederschläge Wind Luftdruck Luftfeuchtigkeit
    00:00 +36°C° 0 mm 3 m/S 751 mmHg 58%
    01:00 +36°C° 0 mm 3 m/S 751 mmHg 59%
    02:00 +35°C° 0 mm 3 m/S 750 mmHg 60%
    03:00 +35°C° 0 mm 2 m/S 750 mmHg 62%
    04:00 +35°C° 0 mm 2 m/S 751 mmHg 63%
    05:00 +35°C° 0 mm 2 m/S 751 mmHg 64%
    06:00 +35°C° 0 mm 2 m/S 752 mmHg 65%
    07:00 +35°C° 0 mm 2 m/S 752 mmHg 63%
    08:00 +36°C° 0 mm 2 m/S 752 mmHg 60%
    09:00 +36°C° 0 mm 2 m/S 752 mmHg 57%
    10:00 +36°C° 0 mm 2 m/S 752 mmHg 55%
    11:00 +37°C° 0 mm 2 m/S 752 mmHg 53%
    12:00 +37°C° 0 mm 3 m/S 751 mmHg 50%
    13:00 +37°C° 0 mm 2 m/S 751 mmHg 50%
    14:00 +38°C° 0 mm 2 m/S 750 mmHg 50%
    15:00 +38°C° 0 mm 2 m/S 750 mmHg 52%
    16:00 +38°C° 0 mm 2 m/S 750 mmHg 52%
    17:00 +37°C° 0 mm 2 m/S 750 mmHg 52%
    18:00 +37°C° 0 mm 3 m/S 750 mmHg 52%
    19:00 +37°C° 0 mm 2 m/S 750 mmHg 54%
    20:00 +35°C° 0 mm 1 m/S 750 mmHg 57%
    21:00 +35°C° 0 mm 1 m/S 750 mmHg 59%
    22:00 +35°C° 0 mm 1 m/S 750 mmHg 58%
    23:00 +35°C° 0 mm 1 m/S 750 mmHg 57%

    Morgen, 18 September, Mittwoch

    Zeit Temperatur Niederschläge Wind Luftdruck Luftfeuchtigkeit
    00:00 +35°C° 0 mm 1 m/S 750 mmHg 56%
    01:00 +35°C° 0 mm 1 m/S 750 mmHg 59%
    02:00 +32°C° 0 mm 0 m/S 750 mmHg 62%
    03:00 +32°C° 0 mm 0 m/S 749 mmHg 64%
    04:00 +34°C° 0 mm 1 m/S 750 mmHg 60%
    05:00 +35°C° 0 mm 2 m/S 750 mmHg 55%
    06:00 +36°C° 0 mm 3 m/S 751 mmHg 51%
    07:00 +36°C° 0 mm 3 m/S 751 mmHg 51%
    08:00 +36°C° 0 mm 3 m/S 751 mmHg 51%
    09:00 +36°C° 0 mm 3 m/S 752 mmHg 50%
    10:00 +37°C° 0 mm 3 m/S 752 mmHg 49%
    11:00 +37°C° 0 mm 2 m/S 751 mmHg 48%
    12:00 +38°C° 0 mm 2 m/S 751 mmHg 46%
    13:00 +38°C° 0 mm 2 m/S 751 mmHg 47%
    14:00 +38°C° 0 mm 2 m/S 750 mmHg 47%
    15:00 +38°C° 0 mm 2 m/S 750 mmHg 48%
    16:00 +37°C° 0 mm 2 m/S 750 mmHg 50%
    17:00 +37°C° 0 mm 3 m/S 750 mmHg 52%
    18:00 +36°C° 0 mm 3 m/S 751 mmHg 54%
    19:00 +36°C° 0 mm 3 m/S 751 mmHg 57%
    20:00 +35°C° 0 mm 3 m/S 751 mmHg 59%
    21:00 +35°C° 0 mm 3 m/S 751 mmHg 62%
    22:00 +35°C° 0 mm 2 m/S 751 mmHg 63%
    23:00 +34°C° 0 mm 1 m/S 751 mmHg 65%

    übermorgen, 19 September, Donnerstag

    Zeit Temperatur Niederschläge Wind Luftdruck Luftfeuchtigkeit
    00:00 +33°C° 0 mm 1 m/S 751 mmHg 66%
    01:00 +33°C° 0 mm 1 m/S 751 mmHg 66%
    02:00 +33°C° 0 mm 1 m/S 751 mmHg 66%
    03:00 +33°C° 0 mm 1 m/S 750 mmHg 65%
    04:00 +33°C° 0 mm 1 m/S 751 mmHg 64%
    05:00 +33°C° 0 mm 1 m/S 751 mmHg 63%
    06:00 +33°C° 0 mm 1 m/S 752 mmHg 62%
    07:00 +34°C° 0 mm 1 m/S 752 mmHg 61%
    08:00 +34°C° 0 mm 1 m/S 752 mmHg 60%
    09:00 +35°C° 0 mm 1 m/S 753 mmHg 59%
    10:00 +35°C° 0 mm 1 m/S 753 mmHg 55%
    11:00 +35°C° 0 mm 1 m/S 752 mmHg 51%
    12:00 +35°C° 0 mm 1 m/S 752 mmHg 47%
    13:00 +37°C° 0 mm 2 m/S 752 mmHg 49%
    14:00 +37°C° 0 mm 2 m/S 751 mmHg 52%
    15:00 +37°C° 0 mm 2 m/S 751 mmHg 54%
    16:00 +37°C° 0 mm 3 m/S 751 mmHg 56%
    17:00 +36°C° 0 mm 3 m/S 751 mmHg 58%
    18:00 +36°C° 0 mm 4 m/S 751 mmHg 60%
    19:00 +36°C° 0 mm 3 m/S 751 mmHg 62%
    20:00 +35°C° 0 mm 3 m/S 752 mmHg 63%
    21:00 +35°C° 0 mm 2 m/S 752 mmHg 65%
    22:00 +35°C° 0 mm 2 m/S 752 mmHg 67%
    23:00 +34°C° 0 mm 1 m/S 752 mmHg 69%

    20 September, Freitag

    Zeit Temperatur Niederschläge Wind Luftdruck Luftfeuchtigkeit
    00:00 +31°C° 0 mm 0 m/S 751 mmHg 71%
    01:00 +34°C° 0 mm 2 m/S 751 mmHg 68%
    02:00 +34°C° 0 mm 3 m/S 751 mmHg 65%
    03:00 +34°C° 0 mm 4 m/S 751 mmHg 62%
    04:00 +34°C° 0 mm 4 m/S 751 mmHg 62%
    05:00 +34°C° 0 mm 4 m/S 751 mmHg 61%
    06:00 +34°C° 0 mm 3 m/S 752 mmHg 60%
    07:00 +35°C° 0 mm 3 m/S 752 mmHg 58%
    08:00 +35°C° 0 mm 2 m/S 752 mmHg 56%
    09:00 +36°C° 0 mm 2 m/S 753 mmHg 54%
    10:00 +36°C° 0 mm 2 m/S 752 mmHg 52%
    11:00 +36°C° 0 mm 2 m/S 752 mmHg 50%
    12:00 +36°C° 0 mm 1 m/S 751 mmHg 49%
    13:00 +37°C° 0 mm 2 m/S 751 mmHg 49%
    14:00 +37°C° 0 mm 2 m/S 750 mmHg 49%
    15:00 +37°C° 0 mm 3 m/S 750 mmHg 49%
    16:00 +37°C° 0 mm 3 m/S 750 mmHg 52%
    17:00 +36°C° 0 mm 4 m/S 750 mmHg 55%
    18:00 +36°C° 0 mm 4 m/S 750 mmHg 58%
    19:00 +35°C° 0 mm 4 m/S 750 mmHg 59%
    20:00 +35°C° 0 mm 4 m/S 751 mmHg 59%
    21:00 +35°C° 0 mm 5 m/S 751 mmHg 60%
    22:00 +35°C° 0 mm 4 m/S 750 mmHg 61%
    23:00 +35°C° 0 mm 4 m/S 750 mmHg 62%

    21 September, Samstag

    Zeit Temperatur Niederschläge Wind Luftdruck Luftfeuchtigkeit
    00:00 +35°C° 0 mm 4 m/S 750 mmHg 64%
    01:00 +35°C° 0 mm 4 m/S 750 mmHg 63%
    02:00 +35°C° 0 mm 4 m/S 749 mmHg 62%
    03:00 +35°C° 0 mm 3 m/S 749 mmHg 62%
    04:00 +35°C° 0 mm 3 m/S 750 mmHg 60%
    05:00 +34°C° 0 mm 3 m/S 750 mmHg 57%
    06:00 +34°C° 0 mm 2 m/S 750 mmHg 55%
    07:00 +35°C° 0 mm 2 m/S 750 mmHg 52%
    08:00 +35°C° 0 mm 3 m/S 751 mmHg 49%
    09:00 +36°C° 0 mm 3 m/S 751 mmHg 47%
    10:00 +36°C° 0 mm 3 m/S 751 mmHg 46%
    11:00 +37°C° 0 mm 3 m/S 750 mmHg 45%
    12:00 +37°C° 0 mm 3 m/S 750 mmHg 44%
    13:00 +38°C° 0 mm 3 m/S 749 mmHg 43%
    14:00 +38°C° 0 mm 3 m/S 748 mmHg 43%
    15:00 +39°C° 0 mm 3 m/S 748 mmHg 42%
    16:00 +38°C° 0 mm 4 m/S 748 mmHg 43%
    17:00 +38°C° 0 mm 4 m/S 748 mmHg 45%
    18:00 +39°C° 0 mm 5 m/S 748 mmHg 46%
    19:00 +37°C° 0 mm 5 m/S 748 mmHg 52%
    20:00 +36°C° 0 mm 5 m/S 749 mmHg 58%
    21:00 +35°C° 0 mm 5 m/S 749 mmHg 63%
    22:00 +35°C° 0 mm 5 m/S 749 mmHg 63%
    23:00 +35°C° 0 mm 4 m/S 749 mmHg 63%

    22 September, Sonntag

    Zeit Temperatur Niederschläge Wind Luftdruck Luftfeuchtigkeit
    00:00 +35°C° 0 mm 4 m/S 749 mmHg 63%
    01:00 +35°C° 0 mm 3 m/S 749 mmHg 63%
    02:00 +35°C° 0 mm 3 m/S 749 mmHg 63%
    03:00 +34°C° 0 mm 3 m/S 749 mmHg 63%
    04:00 +34°C° 0 mm 3 m/S 749 mmHg 61%
    05:00 +34°C° 0 mm 3 m/S 750 mmHg 60%
    06:00 +34°C° 0 mm 4 m/S 750 mmHg 58%
    07:00 +35°C° 0 mm 4 m/S 750 mmHg 55%
    08:00 +35°C° 0 mm 5 m/S 751 mmHg 53%
    09:00 +36°C° 0 mm 6 m/S 751 mmHg 50%
    10:00 +36°C° 0 mm 5 m/S 751 mmHg 49%
    11:00 +36°C° 0 mm 4 m/S 751 mmHg 48%
    12:00 +37°C° 0 mm 4 m/S 750 mmHg 47%
    13:00 +37°C° 0 mm 4 m/S 750 mmHg 48%
    14:00 +37°C° 0 mm 4 m/S 750 mmHg 49%
    15:00 +38°C° 0 mm 4 m/S 749 mmHg 51%
    16:00 +37°C° 0 mm 5 m/S 749 mmHg 54%
    17:00 +37°C° 0 mm 5 m/S 749 mmHg 58%
    18:00 +36°C° 0 mm 6 m/S 749 mmHg 62%
    19:00 +36°C° 0 mm 6 m/S 750 mmHg 65%
    20:00 +35°C° 0 mm 5 m/S 750 mmHg 68%
    21:00 +34°C° 0 mm 5 m/S 751 mmHg 71%
    22:00 +34°C° 0 mm 4 m/S 751 mmHg 70%
    23:00 +34°C° 0 mm 4 m/S 751 mmHg 69%
    Mehr zeigen